NOAA 16 DEB, 42409

Orbit data source: Space-Track

NOAA 16 DEB, 42409 is space debris in SSO originally from a launch on Thu, 21 Sep 2000 UTC launched from the Air Force Western Test Range (AFWTR). Debris objects in space refer to the collection of defunct objects orbiting the Earth. Examples of debris include non-operational satellites, rocket bodies, and fragments generated from explosions, collisions, or faulty payload assembly.

Loading next visibility...
Identifier
42409, 2000-055TD
Orbit
SSO
Country
Flag of USUS
Related business
Manufacturer
Unknown
Mission
Spacecraft
Bus & Motor
Unknown
Mass
Unknown
Launch date (UTC)
2000-09-21 (26 years ago)
Launch vehicle
Unknown
Launch site
Air Force Western Test Range (AFWTR)
Object type
Payload
Rocket body
Debris
Shape & HBR
Unknown shape, 0.1 m
Radar Cross Section
Medium (>0.1 m² and <1 m²)

Expand to show TLE details & history
Last TLE update: 1 week ago

TLE from 1 week ago
0 NOAA 16 DEB
1 42409U 00055TD  26152.70227437  .00023069  00000-0  30810-2 0  9991
2 42409  98.7757 318.8494 0018580 354.2408   5.8584 14.79424928533055
Epoch: 2026-06-01T16:51Z
TLE epoch observation values (Epoch: 2026-06-01T16:51:16.505Z)
Latitude
-0.00007°
Longitude
175.84483°
Altitude
621.175 km
Speed
7.555 km/s
True Right ascension
21h 15m 23s
True Declination
0° 00' 00"
Sunlit
Object was in daylight at epoch
Visualization orbit readout
Latitude
Unknown
Longitude
Unknown
Altitude
Unknown
Speed
Unknown
Apparent Right ascension
Unknown
Apparent Declination
Unknown
Sunlit
N/A
Visualization observer readout
Local Sidereal Time
19:07:22
Azimuth
Unknown
Elevation
Unknown
Doppler factor
Unknown
Orbital elements
Apogee altitude
641.241 km
Perigee altitude
615.205 km
Semi-major axis
7,006.36 km
Eccentricity
0.00186
Inclination
98.7757°
RAAN
318.8494°
Arg. of periapsis
354.2408°
True anomaly
5.88018°
Mean anomaly
5.8584°
Eccentric anomaly
5.86929°
Mean motion
3.70088 °/min
Orbital period
97.27 mins
BSTAR
0.003081
Loading maneuver chart data...
Computing Atmospheric mass density...
Loading historical data...
Loading historical data...
Loading historical data...
Loading historical data...
Loading historical data...
Loading historical data...
Loading historical data...

Documentation

Showing up to 5 results
|